Location: Katp?dip?lem
(16.6502°N, 80.5643°E)
Time: 18:16:08
(UTC+00:00)

COSMO-SKYMED 1 - Pass Details

Date: 14 April 2024
Orbit: 621 x 623 km, 97.9° (Epoch: 20 May)

Event Time Altitude Azimuth Distance (km) Brightness Sun altitude
Rises 23:57:18 0° 162° (SSE) 2,892 6.1 -6.9°
Reaches altitude 10° 23:59:29 10° 159° (SSE) 1,987 5.3 -6.4°
Maximum altitude 00:03:46 64° 78° (ENE) 688 3.2 -5.4°
Drops below altitude 10° 00:08:04 10° 356° (N) 1,991 5.3 -4.4°
Sets 00:10:16 0° 353° (N) 2,898 6.1 -3.8°
